Year,Month,Day,Hour,Minute,Value (Times are PST for temperature in C)
2016,08,12,00,00,22.80
2016,08,12,00,01,22.80
2016,08,12,00,02,22.80
2016,08,12,00,03,22.80
2016,08,12,00,04,22.70
2016,08,12,00,05,22.70
2016,08,12,00,06,22.70
2016,08,12,00,07,22.60
2016,08,12,00,08,22.60
2016,08,12,00,09,22.60
2016,08,12,00,10,22.50
2016,08,12,00,11,22.50
2016,08,12,00,12,22.40
2016,08,12,00,13,22.40
2016,08,12,00,14,22.40
2016,08,12,00,15,22.40
2016,08,12,00,16,22.40
2016,08,12,00,17,22.40
2016,08,12,00,18,22.40
2016,08,12,00,19,22.40
2016,08,12,00,20,22.40
2016,08,12,00,21,22.30
2016,08,12,00,22,22.30
2016,08,12,00,23,22.30
2016,08,12,00,24,22.20
2016,08,12,00,25,22.20
2016,08,12,00,26,22.20
2016,08,12,00,27,22.20
2016,08,12,00,28,22.20
2016,08,12,00,29,22.20
2016,08,12,00,30,22.20
2016,08,12,00,31,22.20
2016,08,12,00,32,22.20
2016,08,12,00,33,22.20
2016,08,12,00,34,22.20
2016,08,12,00,35,22.20
2016,08,12,00,36,22.20
2016,08,12,00,37,22.20
2016,08,12,00,38,22.30
2016,08,12,00,39,22.30
2016,08,12,00,40,22.30
2016,08,12,00,41,22.30
2016,08,12,00,42,22.30
2016,08,12,00,43,22.30
2016,08,12,00,44,22.40
2016,08,12,00,45,22.40
2016,08,12,00,46,22.40
2016,08,12,00,47,22.30
2016,08,12,00,48,22.30
2016,08,12,00,49,22.30
2016,08,12,00,50,22.20
2016,08,12,00,51,22.20
2016,08,12,00,52,22.20
2016,08,12,00,53,22.20
2016,08,12,00,54,22.10
2016,08,12,00,55,22.10
2016,08,12,00,56,22.10
2016,08,12,00,57,22.10
2016,08,12,00,58,22.00
2016,08,12,00,59,22.00
2016,08,12,01,00,22.00
2016,08,12,01,01,22.00
2016,08,12,01,02,22.10
2016,08,12,01,03,22.10
2016,08,12,01,04,22.20
2016,08,12,01,05,22.20
2016,08,12,01,06,22.20
2016,08,12,01,07,22.20
2016,08,12,01,08,22.20
2016,08,12,01,09,22.10
2016,08,12,01,10,22.00
2016,08,12,01,11,22.00
2016,08,12,01,12,21.90
2016,08,12,01,13,21.80
2016,08,12,01,14,21.80
2016,08,12,01,15,21.80
2016,08,12,01,16,21.70
2016,08,12,01,17,21.70
2016,08,12,01,18,21.70
2016,08,12,01,19,21.70
2016,08,12,01,20,21.70
2016,08,12,01,21,21.70
2016,08,12,01,22,21.70
2016,08,12,01,23,21.70
2016,08,12,01,24,21.70
2016,08,12,01,25,21.60
2016,08,12,01,26,21.60
2016,08,12,01,27,21.60
2016,08,12,01,28,21.50
2016,08,12,01,29,21.50
2016,08,12,01,30,21.50
2016,08,12,01,31,21.40
2016,08,12,01,32,21.40
2016,08,12,01,33,21.40
2016,08,12,01,34,21.40
2016,08,12,01,35,21.30
2016,08,12,01,36,21.30
2016,08,12,01,37,21.30
2016,08,12,01,38,21.30
2016,08,12,01,39,21.30
2016,08,12,01,40,21.30
2016,08,12,01,41,21.20
2016,08,12,01,42,21.20
2016,08,12,01,43,21.20
2016,08,12,01,44,21.20
2016,08,12,01,45,21.20
2016,08,12,01,46,21.20
2016,08,12,01,47,21.30
2016,08,12,01,48,21.30
2016,08,12,01,49,21.30
2016,08,12,01,50,21.30
2016,08,12,01,51,21.30
2016,08,12,01,52,21.30
2016,08,12,01,53,21.30
2016,08,12,01,54,21.20
2016,08,12,01,55,21.20
2016,08,12,01,56,21.20
2016,08,12,01,57,21.20
2016,08,12,01,58,21.20
2016,08,12,01,59,21.20
2016,08,12,02,00,21.20
2016,08,12,02,01,21.20
2016,08,12,02,02,21.10
2016,08,12,02,03,21.10
2016,08,12,02,04,21.10
2016,08,12,02,05,21.10
2016,08,12,02,06,21.10
2016,08,12,02,07,21.00
2016,08,12,02,08,21.00
2016,08,12,02,09,21.00
2016,08,12,02,10,20.90
2016,08,12,02,11,20.90
2016,08,12,02,12,20.90
2016,08,12,02,13,20.90
2016,08,12,02,14,21.00
2016,08,12,02,15,21.00
2016,08,12,02,16,21.00
2016,08,12,02,17,21.00
2016,08,12,02,18,21.10
2016,08,12,02,19,21.10
2016,08,12,02,20,21.10
2016,08,12,02,21,21.00
2016,08,12,02,22,21.00
2016,08,12,02,23,21.00
2016,08,12,02,24,21.00
2016,08,12,02,25,21.00
2016,08,12,02,26,21.00
2016,08,12,02,27,20.90
2016,08,12,02,28,20.90
2016,08,12,02,29,20.90
2016,08,12,02,30,20.80
2016,08,12,02,31,20.80
2016,08,12,02,32,20.80
2016,08,12,02,33,20.70
2016,08,12,02,34,20.70
2016,08,12,02,35,20.70
2016,08,12,02,36,20.70
2016,08,12,02,37,20.60
2016,08,12,02,38,20.60
2016,08,12,02,39,20.60
2016,08,12,02,40,20.60
2016,08,12,02,41,20.60
2016,08,12,02,42,20.70
2016,08,12,02,43,20.70
2016,08,12,02,44,20.70
2016,08,12,02,45,20.70
2016,08,12,02,46,20.70
2016,08,12,02,47,20.70
2016,08,12,02,48,20.70
2016,08,12,02,49,20.70
2016,08,12,02,50,20.70
2016,08,12,02,51,20.60
2016,08,12,02,52,20.60
2016,08,12,02,53,20.60
2016,08,12,02,54,20.60
2016,08,12,02,55,20.60
2016,08,12,02,56,20.70
2016,08,12,02,57,20.70
2016,08,12,02,58,20.70
2016,08,12,02,59,20.70
2016,08,12,03,00,20.60
2016,08,12,03,01,20.60
2016,08,12,03,02,20.60
2016,08,12,03,03,20.60
2016,08,12,03,04,20.50
2016,08,12,03,05,20.50
2016,08,12,03,06,20.40
2016,08,12,03,07,20.40
2016,08,12,03,08,20.40
2016,08,12,03,09,20.50
2016,08,12,03,10,20.70
2016,08,12,03,11,20.80
2016,08,12,03,12,20.80
2016,08,12,03,13,20.80
2016,08,12,03,14,20.80
2016,08,12,03,15,20.80
2016,08,12,03,16,20.90
2016,08,12,03,17,20.90
2016,08,12,03,18,20.90
2016,08,12,03,19,21.00
2016,08,12,03,20,21.00
2016,08,12,03,21,21.10
2016,08,12,03,22,21.20
2016,08,12,03,23,21.20
2016,08,12,03,24,21.30
2016,08,12,03,25,21.30
2016,08,12,03,26,21.30
2016,08,12,03,27,21.30
2016,08,12,03,28,21.40
2016,08,12,03,29,21.40
2016,08,12,03,30,21.40
2016,08,12,03,31,21.40
2016,08,12,03,32,21.40
2016,08,12,03,33,21.40
2016,08,12,03,34,21.40
2016,08,12,03,35,21.30
2016,08,12,03,36,21.30
2016,08,12,03,37,21.30
2016,08,12,03,38,21.30
2016,08,12,03,39,21.40
2016,08,12,03,40,21.40
2016,08,12,03,41,21.40
2016,08,12,03,42,21.40
2016,08,12,03,43,21.40
2016,08,12,03,44,21.40
2016,08,12,03,45,21.40
2016,08,12,03,46,21.40
2016,08,12,03,47,21.40
2016,08,12,03,48,21.40
2016,08,12,03,49,21.30
2016,08,12,03,50,21.20
2016,08,12,03,51,21.20
2016,08,12,03,52,21.20
2016,08,12,03,53,21.20
2016,08,12,03,54,21.10
2016,08,12,03,55,21.10
2016,08,12,03,56,21.10
2016,08,12,03,57,21.00
2016,08,12,03,58,20.90
2016,08,12,03,59,20.90
2016,08,12,04,00,20.90
2016,08,12,04,01,20.90
2016,08,12,04,02,20.90
2016,08,12,04,03,20.90
2016,08,12,04,04,20.90
2016,08,12,04,05,20.90
2016,08,12,04,06,21.00
2016,08,12,04,07,21.10
2016,08,12,04,08,21.10
2016,08,12,04,09,21.20
2016,08,12,04,10,21.20
2016,08,12,04,11,21.20
2016,08,12,04,12,21.20
2016,08,12,04,13,21.30
2016,08,12,04,14,21.30
2016,08,12,04,15,21.20
2016,08,12,04,16,21.20
2016,08,12,04,17,21.20
2016,08,12,04,18,21.30
2016,08,12,04,19,21.20
2016,08,12,04,20,21.20
2016,08,12,04,21,21.20
2016,08,12,04,22,21.20
2016,08,12,04,23,21.20
2016,08,12,04,24,21.20
2016,08,12,04,25,21.30
2016,08,12,04,26,21.30
2016,08,12,04,27,21.20
2016,08,12,04,28,21.20
2016,08,12,04,29,21.10
2016,08,12,04,30,21.10
2016,08,12,04,31,21.10
2016,08,12,04,32,21.00
2016,08,12,04,33,21.00
2016,08,12,04,34,20.90
2016,08,12,04,35,20.90
2016,08,12,04,36,20.80
2016,08,12,04,37,20.80
2016,08,12,04,38,20.80
2016,08,12,04,39,20.80
2016,08,12,04,40,20.80
2016,08,12,04,41,20.80
2016,08,12,04,42,20.80
2016,08,12,04,43,20.70
2016,08,12,04,44,20.70
2016,08,12,04,45,20.70
2016,08,12,04,46,20.70
2016,08,12,04,47,20.80
2016,08,12,04,48,20.70
2016,08,12,04,49,20.70
2016,08,12,04,50,20.70
2016,08,12,04,51,20.80
2016,08,12,04,52,20.80
2016,08,12,04,53,20.90
2016,08,12,04,54,20.90
2016,08,12,04,55,20.90
2016,08,12,04,56,21.00
2016,08,12,04,57,21.00
2016,08,12,04,58,21.00
2016,08,12,04,59,21.00
2016,08,12,05,00,21.00
2016,08,12,05,01,21.00
2016,08,12,05,02,21.00
2016,08,12,05,03,21.00
2016,08,12,05,04,21.00
2016,08,12,05,05,20.90
2016,08,12,05,06,20.70
2016,08,12,05,07,20.50
2016,08,12,05,08,20.40
2016,08,12,05,09,20.30
2016,08,12,05,10,20.20
2016,08,12,05,11,20.10
2016,08,12,05,12,20.00
2016,08,12,05,13,20.00
2016,08,12,05,14,20.00
2016,08,12,05,15,19.90
2016,08,12,05,16,19.90
2016,08,12,05,17,19.80
2016,08,12,05,18,19.80
2016,08,12,05,19,19.70
2016,08,12,05,20,19.70
2016,08,12,05,21,19.70
2016,08,12,05,22,19.70
2016,08,12,05,23,19.60
2016,08,12,05,24,19.60
2016,08,12,05,25,19.50
2016,08,12,05,26,19.50
2016,08,12,05,27,19.40
2016,08,12,05,28,19.30
2016,08,12,05,29,19.30
2016,08,12,05,30,19.20
2016,08,12,05,31,19.10
2016,08,12,05,32,19.10
2016,08,12,05,33,19.00
2016,08,12,05,34,18.90
2016,08,12,05,35,18.90
2016,08,12,05,36,18.80
2016,08,12,05,37,18.70
2016,08,12,05,38,18.70
2016,08,12,05,39,18.60
2016,08,12,05,40,18.60
2016,08,12,05,41,18.50
2016,08,12,05,42,18.50
2016,08,12,05,43,18.40
2016,08,12,05,44,18.40
2016,08,12,05,45,18.30
2016,08,12,05,46,18.30
2016,08,12,05,47,18.30
2016,08,12,05,48,18.30
2016,08,12,05,49,18.40
2016,08,12,05,50,18.40
2016,08,12,05,51,18.40
2016,08,12,05,52,18.40
2016,08,12,05,53,18.50
2016,08,12,05,54,18.50
2016,08,12,05,55,18.60
2016,08,12,05,56,18.60
2016,08,12,05,57,18.70
2016,08,12,05,58,18.80
2016,08,12,05,59,18.90
2016,08,12,06,00,18.90
2016,08,12,06,01,18.90
2016,08,12,06,02,19.00
2016,08,12,06,03,19.00
2016,08,12,06,04,19.10
2016,08,12,06,05,19.10
2016,08,12,06,06,19.20
2016,08,12,06,07,19.30
2016,08,12,06,08,19.40
2016,08,12,06,09,19.40
2016,08,12,06,10,19.40
2016,08,12,06,11,19.40
2016,08,12,06,12,19.50
2016,08,12,06,13,19.50
2016,08,12,06,14,19.60
2016,08,12,06,15,19.60
2016,08,12,06,16,19.70
2016,08,12,06,17,19.70
2016,08,12,06,18,19.80
2016,08,12,06,19,19.80
2016,08,12,06,20,19.90
2016,08,12,06,21,19.90
2016,08,12,06,22,20.00
2016,08,12,06,23,20.00
2016,08,12,06,24,20.10
2016,08,12,06,25,20.10
2016,08,12,06,26,20.00
2016,08,12,06,27,20.00
2016,08,12,06,28,20.00
2016,08,12,06,29,19.90
2016,08,12,06,30,19.90
2016,08,12,06,31,19.90
2016,08,12,06,32,19.90
2016,08,12,06,33,19.80
2016,08,12,06,34,19.80
2016,08,12,06,35,19.70
2016,08,12,06,36,19.60
2016,08,12,06,37,19.60
2016,08,12,06,38,19.50
2016,08,12,06,39,19.40
2016,08,12,06,40,19.30
2016,08,12,06,41,19.20
2016,08,12,06,42,19.10
2016,08,12,06,43,19.00
2016,08,12,06,44,18.90
2016,08,12,06,45,18.80
2016,08,12,06,46,18.80
2016,08,12,06,47,18.80
2016,08,12,06,48,18.90
2016,08,12,06,49,19.00
2016,08,12,06,50,19.10
2016,08,12,06,51,19.10
2016,08,12,06,52,19.10
2016,08,12,06,53,19.10
2016,08,12,06,54,19.00
2016,08,12,06,55,19.00
2016,08,12,06,56,18.90
2016,08,12,06,57,18.80
2016,08,12,06,58,18.80
2016,08,12,06,59,18.70
2016,08,12,07,00,18.70
2016,08,12,07,01,18.60
2016,08,12,07,02,18.60
2016,08,12,07,03,18.60
2016,08,12,07,04,18.60
2016,08,12,07,05,18.60
2016,08,12,07,06,18.70
2016,08,12,07,07,18.70
2016,08,12,07,08,18.70
2016,08,12,07,09,18.70
2016,08,12,07,10,18.70
2016,08,12,07,11,18.70
2016,08,12,07,12,18.70
2016,08,12,07,13,18.70
2016,08,12,07,14,18.80
2016,08,12,07,15,18.80
2016,08,12,07,16,18.80
2016,08,12,07,17,18.80
2016,08,12,07,18,18.80
2016,08,12,07,19,18.80
2016,08,12,07,20,18.70
2016,08,12,07,21,18.70
2016,08,12,07,22,18.70
2016,08,12,07,23,18.70
2016,08,12,07,24,18.70
2016,08,12,07,25,18.70
2016,08,12,07,26,18.70
2016,08,12,07,27,18.70
2016,08,12,07,28,18.80
2016,08,12,07,29,18.80
2016,08,12,07,30,18.80
2016,08,12,07,31,18.80
2016,08,12,07,32,18.80
2016,08,12,07,33,18.80
2016,08,12,07,34,18.80
2016,08,12,07,35,18.80
2016,08,12,07,36,18.70
2016,08,12,07,37,18.60
2016,08,12,07,38,18.50
2016,08,12,07,39,18.30
2016,08,12,07,40,18.20
2016,08,12,07,41,18.10
2016,08,12,07,42,17.90
2016,08,12,07,43,17.90
2016,08,12,07,44,17.80
2016,08,12,07,45,17.80
2016,08,12,07,46,17.80
2016,08,12,07,47,18.00
2016,08,12,07,48,18.20
2016,08,12,07,49,18.40
2016,08,12,07,50,18.60
2016,08,12,07,51,18.80
2016,08,12,07,52,18.90
2016,08,12,07,53,19.00
2016,08,12,07,54,19.10
2016,08,12,07,55,19.10
2016,08,12,07,56,19.10
2016,08,12,07,57,19.20
2016,08,12,07,58,19.20
2016,08,12,07,59,19.20
2016,08,12,08,00,19.20
2016,08,12,08,01,19.20
2016,08,12,08,02,19.10
2016,08,12,08,03,19.10
2016,08,12,08,04,19.10
2016,08,12,08,05,19.10
2016,08,12,08,06,19.00
2016,08,12,08,07,19.00
2016,08,12,08,08,19.00
2016,08,12,08,09,19.00
2016,08,12,08,10,19.00
2016,08,12,08,11,19.00
2016,08,12,08,12,19.00
2016,08,12,08,13,19.00
2016,08,12,08,14,19.00
2016,08,12,08,15,19.00
2016,08,12,08,16,19.00
2016,08,12,08,17,18.90
2016,08,12,08,18,18.90
2016,08,12,08,19,18.80
2016,08,12,08,20,18.80
2016,08,12,08,21,18.80
2016,08,12,08,22,18.80
2016,08,12,08,23,18.80
2016,08,12,08,24,18.80
2016,08,12,08,25,18.80
2016,08,12,08,26,18.80
2016,08,12,08,27,18.80
2016,08,12,08,28,18.90
2016,08,12,08,29,18.90
2016,08,12,08,30,18.90
2016,08,12,08,31,18.90
2016,08,12,08,32,18.90
2016,08,12,08,33,19.00
2016,08,12,08,34,19.00
2016,08,12,08,35,19.10
2016,08,12,08,36,19.10
2016,08,12,08,37,19.20
2016,08,12,08,38,19.20
2016,08,12,08,39,19.20
2016,08,12,08,40,19.30
2016,08,12,08,41,19.30
2016,08,12,08,42,19.40
2016,08,12,08,43,19.40
2016,08,12,08,44,19.50
2016,08,12,08,45,19.50
2016,08,12,08,46,19.50
2016,08,12,08,47,19.50
2016,08,12,08,48,19.60
2016,08,12,08,49,19.60
2016,08,12,08,50,19.60
2016,08,12,08,51,19.60
2016,08,12,08,52,19.60
2016,08,12,08,53,19.70
2016,08,12,08,54,19.60
2016,08,12,08,55,19.60
2016,08,12,08,56,19.60
2016,08,12,08,57,19.60
2016,08,12,08,58,19.60
2016,08,12,08,59,19.60
2016,08,12,09,00,19.70
2016,08,12,09,01,19.70
2016,08,12,09,02,19.70
2016,08,12,09,03,19.70
2016,08,12,09,04,19.60
2016,08,12,09,05,19.60
2016,08,12,09,06,19.60
2016,08,12,09,07,19.50
2016,08,12,09,08,19.50
2016,08,12,09,09,19.50
2016,08,12,09,10,19.40
2016,08,12,09,11,19.40
2016,08,12,09,12,19.40
2016,08,12,09,13,19.30
2016,08,12,09,14,19.30
2016,08,12,09,15,19.20
2016,08,12,09,16,19.20
2016,08,12,09,17,19.20
2016,08,12,09,18,19.20
2016,08,12,09,19,19.20
2016,08,12,09,20,19.10
2016,08,12,09,21,19.10
2016,08,12,09,22,19.10
2016,08,12,09,23,19.10
2016,08,12,09,24,19.10
2016,08,12,09,25,19.10
2016,08,12,09,26,19.10
2016,08,12,09,27,19.10
2016,08,12,09,28,19.00
2016,08,12,09,29,19.00
2016,08,12,09,30,18.90
2016,08,12,09,31,18.90
2016,08,12,09,32,18.80
2016,08,12,09,33,18.80
2016,08,12,09,34,18.80
2016,08,12,09,35,18.90
2016,08,12,09,36,18.90
2016,08,12,09,37,18.90
2016,08,12,09,38,18.90
2016,08,12,09,39,18.90
2016,08,12,09,40,18.90
2016,08,12,09,41,18.90
2016,08,12,09,42,18.90
2016,08,12,09,43,19.00
2016,08,12,09,44,19.00
2016,08,12,09,45,19.00
2016,08,12,09,46,18.90
2016,08,12,09,47,19.00
2016,08,12,09,48,19.00
2016,08,12,09,49,19.10
2016,08,12,09,50,19.10
2016,08,12,09,51,19.10
2016,08,12,09,52,19.10
2016,08,12,09,53,19.10
2016,08,12,09,54,19.20
2016,08,12,09,55,19.20
2016,08,12,09,56,19.20
2016,08,12,09,57,19.20
2016,08,12,09,58,19.20
2016,08,12,09,59,19.30
2016,08,12,10,00,19.40
2016,08,12,10,01,19.60
2016,08,12,10,02,19.70
2016,08,12,10,03,19.80
2016,08,12,10,04,19.90
2016,08,12,10,05,20.00
2016,08,12,10,06,20.10
2016,08,12,10,07,20.20
2016,08,12,10,08,20.30
2016,08,12,10,09,20.40
2016,08,12,10,10,20.60
2016,08,12,10,11,20.60
2016,08,12,10,12,20.80
2016,08,12,10,13,20.90
2016,08,12,10,14,21.00
2016,08,12,10,15,21.10
2016,08,12,10,16,21.10
2016,08,12,10,17,21.20
2016,08,12,10,18,21.30
2016,08,12,10,19,21.40
2016,08,12,10,20,21.40
2016,08,12,10,21,21.50
2016,08,12,10,22,21.60
2016,08,12,10,23,21.60
2016,08,12,10,24,21.80
2016,08,12,10,25,21.80
2016,08,12,10,26,21.90
2016,08,12,10,27,21.90
2016,08,12,10,28,21.90
2016,08,12,10,29,21.90
2016,08,12,10,30,21.90
2016,08,12,10,31,21.90
2016,08,12,10,32,21.90
2016,08,12,10,33,21.90
2016,08,12,10,34,22.00
2016,08,12,10,35,22.00
2016,08,12,10,36,22.00
2016,08,12,10,37,22.10
2016,08,12,10,38,22.20
2016,08,12,10,39,22.20
2016,08,12,10,40,22.30
2016,08,12,10,41,22.30
2016,08,12,10,42,22.40
2016,08,12,10,43,22.40
2016,08,12,10,44,22.50
2016,08,12,10,45,22.60
2016,08,12,10,46,22.70
2016,08,12,10,47,22.80
2016,08,12,10,48,22.80
2016,08,12,10,49,22.90
2016,08,12,10,50,22.90
2016,08,12,10,51,22.90
2016,08,12,10,52,22.90
2016,08,12,10,53,22.90
2016,08,12,10,54,22.90
2016,08,12,10,55,22.90
2016,08,12,10,56,22.90
2016,08,12,10,57,22.90
2016,08,12,10,58,22.90
2016,08,12,10,59,22.90
2016,08,12,11,00,22.90
2016,08,12,11,01,23.00
2016,08,12,11,02,23.10
2016,08,12,11,03,23.10
2016,08,12,11,04,23.20
2016,08,12,11,05,23.30
2016,08,12,11,06,23.40
2016,08,12,11,07,23.40
2016,08,12,11,08,23.50
2016,08,12,11,09,23.60
2016,08,12,11,10,23.60
2016,08,12,11,11,23.70
2016,08,12,11,12,23.70
2016,08,12,11,13,23.80
2016,08,12,11,14,23.90
2016,08,12,11,15,23.90
2016,08,12,11,16,23.90
2016,08,12,11,17,24.00
2016,08,12,11,18,24.00
2016,08,12,11,19,24.10
2016,08,12,11,20,24.10
2016,08,12,11,21,24.10
2016,08,12,11,22,24.10
2016,08,12,11,23,24.00
2016,08,12,11,24,24.00
2016,08,12,11,25,24.00
2016,08,12,11,26,23.90
2016,08,12,11,27,23.90
2016,08,12,11,28,24.00
2016,08,12,11,29,24.00
2016,08,12,11,30,24.10
2016,08,12,11,31,24.10
2016,08,12,11,32,24.10
2016,08,12,11,33,24.30
2016,08,12,11,34,24.30
2016,08,12,11,35,24.30
2016,08,12,11,36,24.40
2016,08,12,11,37,24.50
2016,08,12,11,38,24.50
2016,08,12,11,39,24.60
2016,08,12,11,40,24.70
2016,08,12,11,41,24.80
2016,08,12,11,42,24.90
2016,08,12,11,43,25.10
2016,08,12,11,44,25.20
2016,08,12,11,45,25.30
2016,08,12,11,46,25.30
2016,08,12,11,47,25.40
2016,08,12,11,48,25.50
2016,08,12,11,49,25.50
2016,08,12,11,50,25.60
2016,08,12,11,51,25.60
2016,08,12,11,52,25.70
2016,08,12,11,53,25.70
2016,08,12,11,54,25.80
2016,08,12,11,55,25.80
2016,08,12,11,56,25.80
2016,08,12,11,57,25.80
2016,08,12,11,58,25.80
2016,08,12,11,59,25.80
2016,08,12,12,00,25.80
2016,08,12,12,01,25.80
2016,08,12,12,02,25.80
2016,08,12,12,03,25.70
2016,08,12,12,04,25.60
2016,08,12,12,05,25.60
2016,08,12,12,06,25.50
2016,08,12,12,07,25.40
2016,08,12,12,08,25.40
2016,08,12,12,09,25.40
2016,08,12,12,10,25.40
2016,08,12,12,11,25.40
2016,08,12,12,12,25.40
2016,08,12,12,13,25.40
2016,08,12,12,14,25.50
2016,08,12,12,15,25.50
2016,08,12,12,16,25.60
2016,08,12,12,17,25.70
2016,08,12,12,18,25.70
2016,08,12,12,19,25.90
2016,08,12,12,20,26.00
2016,08,12,12,21,26.10
2016,08,12,12,22,26.20
2016,08,12,12,23,26.20
2016,08,12,12,24,26.30
2016,08,12,12,25,26.30
2016,08,12,12,26,26.30
2016,08,12,12,27,26.30
2016,08,12,12,28,26.40
2016,08,12,12,29,26.40
2016,08,12,12,30,26.40
2016,08,12,12,31,26.50
2016,08,12,12,32,26.50
2016,08,12,12,33,26.50
2016,08,12,12,34,26.60
2016,08,12,12,35,26.60
2016,08,12,12,36,26.70
2016,08,12,12,37,26.80
2016,08,12,12,38,26.80
2016,08,12,12,39,26.90
2016,08,12,12,40,27.00
2016,08,12,12,41,27.10
2016,08,12,12,42,27.10
2016,08,12,12,43,27.20
2016,08,12,12,44,27.20
2016,08,12,12,45,27.20
2016,08,12,12,46,27.30
2016,08,12,12,47,27.40
2016,08,12,12,48,27.50
2016,08,12,12,49,27.60
2016,08,12,12,50,27.60
2016,08,12,12,51,27.70
2016,08,12,12,52,27.80
2016,08,12,12,53,27.90
2016,08,12,12,54,28.00
2016,08,12,12,55,28.00
2016,08,12,12,56,28.10
2016,08,12,12,57,28.10
2016,08,12,12,58,28.10
2016,08,12,12,59,28.10
2016,08,12,13,00,28.10
2016,08,12,13,01,28.00
2016,08,12,13,02,28.10
2016,08,12,13,03,28.10
2016,08,12,13,04,28.10
2016,08,12,13,05,28.10
2016,08,12,13,06,28.10
2016,08,12,13,07,28.10
2016,08,12,13,08,28.20
2016,08,12,13,09,28.20
2016,08,12,13,10,28.20
2016,08,12,13,11,28.20
2016,08,12,13,12,28.20
2016,08,12,13,13,28.20
2016,08,12,13,14,28.20
2016,08,12,13,15,28.30
2016,08,12,13,16,28.30
2016,08,12,13,17,28.40
2016,08,12,13,18,28.50
2016,08,12,13,19,28.50
2016,08,12,13,20,28.60
2016,08,12,13,21,28.60
2016,08,12,13,22,28.60
2016,08,12,13,23,28.60
2016,08,12,13,24,28.70
2016,08,12,13,25,28.70
2016,08,12,13,26,28.80
2016,08,12,13,27,28.80
2016,08,12,13,28,28.80
2016,08,12,13,29,28.90
2016,08,12,13,30,28.80
2016,08,12,13,31,28.80
2016,08,12,13,32,28.80
2016,08,12,13,33,28.70
2016,08,12,13,34,28.70
2016,08,12,13,35,28.70
2016,08,12,13,36,28.70
2016,08,12,13,37,28.60
2016,08,12,13,38,28.60
2016,08,12,13,39,28.50
2016,08,12,13,40,28.50
2016,08,12,13,41,28.40
2016,08,12,13,42,28.40
2016,08,12,13,43,28.30
2016,08,12,13,44,28.30
2016,08,12,13,45,28.30
2016,08,12,13,46,28.30
2016,08,12,13,47,28.30
2016,08,12,13,48,28.40
2016,08,12,13,49,28.40
2016,08,12,13,50,28.40
2016,08,12,13,51,28.40
2016,08,12,13,52,28.40
2016,08,12,13,53,28.40
2016,08,12,13,54,28.40
2016,08,12,13,55,28.50
2016,08,12,13,56,28.40
2016,08,12,13,57,28.40
2016,08,12,13,58,28.40
2016,08,12,13,59,28.40
2016,08,12,14,00,28.40
2016,08,12,14,01,28.40
2016,08,12,14,02,28.40
2016,08,12,14,03,28.40
2016,08,12,14,04,28.40
2016,08,12,14,05,28.40
2016,08,12,14,06,28.50
2016,08,12,14,07,28.60
2016,08,12,14,08,28.60
2016,08,12,14,09,28.60
2016,08,12,14,10,28.60
2016,08,12,14,11,28.70
2016,08,12,14,12,28.70
2016,08,12,14,13,28.70
2016,08,12,14,14,28.70
2016,08,12,14,15,28.70
2016,08,12,14,16,28.70
2016,08,12,14,17,28.70
2016,08,12,14,18,28.70
2016,08,12,14,19,28.70
2016,08,12,14,20,28.70
2016,08,12,14,21,28.70
2016,08,12,14,22,28.60
2016,08,12,14,23,28.60
2016,08,12,14,24,28.60
2016,08,12,14,25,28.60
2016,08,12,14,26,28.60
2016,08,12,14,27,28.70
2016,08,12,14,28,28.70
2016,08,12,14,29,28.80
2016,08,12,14,30,28.90
2016,08,12,14,31,28.90
2016,08,12,14,32,28.90
2016,08,12,14,33,28.90
2016,08,12,14,34,28.90
2016,08,12,14,35,28.90
2016,08,12,14,36,28.90
2016,08,12,14,37,28.80
2016,08,12,14,38,28.80
2016,08,12,14,39,28.70
2016,08,12,14,40,28.60
2016,08,12,14,41,28.50
2016,08,12,14,42,28.50
2016,08,12,14,43,28.40
2016,08,12,14,44,28.40
2016,08,12,14,45,28.40
2016,08,12,14,46,28.50
2016,08,12,14,47,28.50
2016,08,12,14,48,28.60
2016,08,12,14,49,28.70
2016,08,12,14,50,28.80
2016,08,12,14,51,28.80
2016,08,12,14,52,28.90
2016,08,12,14,53,28.90
2016,08,12,14,54,29.00
2016,08,12,14,55,29.10
2016,08,12,14,56,29.10
2016,08,12,14,57,29.10
2016,08,12,14,58,29.10
2016,08,12,14,59,29.10
2016,08,12,15,00,29.10
2016,08,12,15,01,29.10
2016,08,12,15,02,29.20
2016,08,12,15,03,29.20
2016,08,12,15,04,29.20
2016,08,12,15,05,29.20
2016,08,12,15,06,29.20
2016,08,12,15,07,29.20
2016,08,12,15,08,29.10
2016,08,12,15,09,29.10
2016,08,12,15,10,29.10
2016,08,12,15,11,29.10
2016,08,12,15,12,29.10
2016,08,12,15,13,29.10
2016,08,12,15,14,29.10
2016,08,12,15,15,29.00
2016,08,12,15,16,29.00
2016,08,12,15,17,28.90
2016,08,12,15,18,28.90
2016,08,12,15,19,28.90
2016,08,12,15,20,28.80
2016,08,12,15,21,28.80
2016,08,12,15,22,28.70
2016,08,12,15,23,28.70
2016,08,12,15,24,28.60
2016,08,12,15,25,28.60
2016,08,12,15,26,28.60
2016,08,12,15,27,28.60
2016,08,12,15,28,28.60
2016,08,12,15,29,28.70
2016,08,12,15,30,28.70
2016,08,12,15,31,28.70
2016,08,12,15,32,28.70
2016,08,12,15,33,28.80
2016,08,12,15,34,28.80
2016,08,12,15,35,28.80
2016,08,12,15,36,28.80
2016,08,12,15,37,28.50
2016,08,12,15,38,28.30
2016,08,12,15,39,28.10
2016,08,12,15,40,27.80
2016,08,12,15,41,27.60
2016,08,12,15,42,27.40
2016,08,12,15,43,27.20
2016,08,12,15,44,27.00
2016,08,12,15,45,26.80
2016,08,12,15,46,26.70
2016,08,12,15,47,26.50
2016,08,12,15,48,26.30
2016,08,12,15,49,26.20
2016,08,12,15,50,26.20
2016,08,12,15,51,26.10
2016,08,12,15,52,26.00
2016,08,12,15,53,26.00
2016,08,12,15,54,26.00
2016,08,12,15,55,26.00
2016,08,12,15,56,25.90
2016,08,12,15,57,25.90
2016,08,12,15,58,25.90
2016,08,12,15,59,25.90
2016,08,12,16,00,25.90
2016,08,12,16,01,25.90
2016,08,12,16,02,26.00
2016,08,12,16,03,26.00
2016,08,12,16,04,26.10
2016,08,12,16,05,26.30
2016,08,12,16,06,26.50
2016,08,12,16,07,26.70
2016,08,12,16,08,27.00
2016,08,12,16,09,27.20
2016,08,12,16,10,27.40
2016,08,12,16,11,27.50
2016,08,12,16,12,27.60
2016,08,12,16,13,27.80
2016,08,12,16,14,27.90
2016,08,12,16,15,27.90
2016,08,12,16,16,27.90
2016,08,12,16,17,28.00
2016,08,12,16,18,28.10
2016,08,12,16,19,28.20
2016,08,12,16,20,28.20
2016,08,12,16,21,28.30
2016,08,12,16,22,28.30
2016,08,12,16,23,28.30
2016,08,12,16,24,28.20
2016,08,12,16,25,28.10
2016,08,12,16,26,28.00
2016,08,12,16,27,28.00
2016,08,12,16,28,28.00
2016,08,12,16,29,28.00
2016,08,12,16,30,28.00
2016,08,12,16,31,28.00
2016,08,12,16,32,28.10
2016,08,12,16,33,28.20
2016,08,12,16,34,28.30
2016,08,12,16,35,28.30
2016,08,12,16,36,28.30
2016,08,12,16,37,28.30
2016,08,12,16,38,28.30
2016,08,12,16,39,28.30
2016,08,12,16,40,28.20
2016,08,12,16,41,28.00
2016,08,12,16,42,27.90
2016,08,12,16,43,27.70
2016,08,12,16,44,27.70
2016,08,12,16,45,27.70
2016,08,12,16,46,27.60
2016,08,12,16,47,27.50
2016,08,12,16,48,27.30
2016,08,12,16,49,27.20
2016,08,12,16,50,27.00
2016,08,12,16,51,26.80
2016,08,12,16,52,26.70
2016,08,12,16,53,26.70
2016,08,12,16,54,26.60
2016,08,12,16,55,26.60
2016,08,12,16,56,26.60
2016,08,12,16,57,26.50
2016,08,12,16,58,26.50
2016,08,12,16,59,26.40
2016,08,12,17,00,26.30
2016,08,12,17,01,26.30
2016,08,12,17,02,26.30
2016,08,12,17,03,26.30
2016,08,12,17,04,26.30
2016,08,12,17,05,26.30
2016,08,12,17,06,26.30
2016,08,12,17,07,26.40
2016,08,12,17,08,26.40
2016,08,12,17,09,26.30
2016,08,12,17,10,26.30
2016,08,12,17,11,26.30
2016,08,12,17,12,26.20
2016,08,12,17,13,26.10
2016,08,12,17,14,26.10
2016,08,12,17,15,26.10
2016,08,12,17,16,26.10
2016,08,12,17,17,26.00
2016,08,12,17,18,26.00
2016,08,12,17,19,26.10